This is the latest recevied weather packets stored in our database for station/object K8JCL-13. If no packets are shown the sender has not sent any weather packets the latest 10 day(s).
| Time | Temp. | Humidity | Pressure | Rain* | Wind** | Luminosity | Snow |
|---|---|---|---|---|---|---|---|
| 1776910692 | 17.78° C | 75% | 1016.6 hPa | 0 mm | - | 0 W/m² | - |
| 1776910388 | 17.78° C | 76% | 1016.6 hPa | 0 mm | - | 0 W/m² | - |
| 1776910085 | 17.78° C | 77% | 1016.5 hPa | 0 mm | - | 0 W/m² | - |
| 1776909783 | 17.78° C | 77% | 1016.3 hPa | 0 mm | - | 0 W/m² | - |
| 1776909479 | 17.78° C | 77% | 1016.3 hPa | 0 mm | - | 0 W/m² | - |
| 1776909176 | 17.78° C | 77% | 1016.2 hPa | 0 mm | - | 0 W/m² | - |
| 1776908874 | 17.78° C | 77% | 1016.5 hPa | 0 mm | - | 0 W/m² | - |
| 1776908572 | 17.78° C | 77% | 1016.4 hPa | 0 mm | - | 0 W/m² | - |
| 1776908268 | 17.78° C | 77% | 1016.3 hPa | 0 mm | - | 0 W/m² | - |
| 1776907964 | 17.78° C | 77% | 1016.3 hPa | 0 mm | - | 0 W/m² | - |
| 1776907661 | 17.78° C | 77% | 1016.4 hPa | 0 mm | - | 0 W/m² | - |
| 1776907358 | 17.78° C | 77% | 1016.6 hPa | 0 mm | - | 0 W/m² | - |
| 1776907055 | 17.78° C | 77% | 1016.3 hPa | 0 mm | - | 0 W/m² | - |
| 1776906753 | 18.33° C | 76% | 1016.4 hPa | 0 mm | - | 0 W/m² | - |
| 1776906449 | 18.33° C | 76% | 1016.4 hPa | 0 mm | - | 0 W/m² | - |
| 1776906146 | 18.33° C | 76% | 1016.4 hPa | 0 mm | - | 0 W/m² | - |
| 1776905842 | 18.89° C | 75% | 1016.1 hPa | 0 mm | - | 0 W/m² | - |
| 1776905538 | 18.89° C | 74% | 1016.1 hPa | 0 mm | - | 0 W/m² | - |
| 1776905235 | 18.89° C | 72% | 1016 hPa | 0 mm | - | 0 W/m² | - |
| 1776904932 | 19.44° C | 71% | 1015.9 hPa | 0 mm | - | 0 W/m² | - |
| 1776904629 | 19.44° C | 71% | 1015.9 hPa | 0 mm | - | 0 W/m² | - |
| 1776904326 | 19.44° C | 70% | 1016 hPa | 0 mm | - | 1 W/m² | - |
| 1776904022 | 20° C | 68% | 1015.8 hPa | 0 mm | - | 1 W/m² | - |
| 1776903718 | 20.56° C | 66% | 1015.8 hPa | 0 mm | - | 2 W/m² | - |
| 1776903414 | 21.67° C | 62% | 1015.5 hPa | 0 mm | - | 3 W/m² | - |
* Rain latest hour (hover to see other rain measurements)
** Current wind speed in m/s (hover to see current wind gust speed)